Wind_Speed
43 44 47 49 52 52 56 49 45 46 46 45 44 45 44 43 40 38 35 32 29 30 35 36 36 33 31 30 31 34 35 35 37 40 38 37 38 34 32 37 39 43 47
49 47 48 54 56 54 51 49 47 47 45 40 45 45 43 40 35 32 28 25 27 30 30 32 32 28 28 27 28 31 34 35 36 37 37 37 38 40 41 39 38 39 47
48 48 50 54 52 51 50 48 49 48 44 43 43 42 39 33 29 25 22 23 28 28 28 27 25 24 24 26 29 31 32 33 33 35 37 38 40 42 41 40 36 32 37
49 51 53 53 52 53 51 51 50 45 43 42 42 37 31 26 25 22 21 25 26 25 23 20 20 21 23 25 26 27 29 30 32 34 36 38 38 35 32 31 32 32 37
51 53 54 54 53 54 53 52 49 47 44 40 38 30 25 23 23 22 22 22 22 19 16 17 18 18 20 22 24 26 29 31 34 36 36 32 26 27 32 28 26 22 19
52 53 54 56 56 54 53 53 49 45 41 38 31 25 22 22 20 20 20 19 16 14 15 16 16 15 16 20 23 28 33 36 38 32 29 23 21 22 19 14 4 2 4
48 51 50 50 49 49 49 48 45 42 37 31 25 23 19 20 18 16 15 13 12 12 12 13 12 11 14 17 19 20 20 14 13 11 8 9 8 4 5 11 12 6 6
51 49 48 49 47 47 47 45 41 37 31 24 21 18 18 14 14 12 11 10 9 9 9 9 6 8 8 5 21 26 20 19 23 20 15 16 15 13 8 6 6 3 2
47 45 44 44 43 41 37 32 27 24 21 20 18 15 13 13 10 8 9 7 5 6 6 5 5 4 2 5 8 10 12 14 17 15 14 11 10 8 7 4 2 1 2
36 36 34 31 27 21 17 15 16 17 17 16 14 13 12 10 9 9 7 8 6 4 7 6 3 3 4 7 7 7 8 10 11 10 10 9 8 6 5 4 3 3 4
26 25 23 20 16 13 10 12 16 17 16 15 13 13 12 11 13 14 14 11 10 8 9 7 5 5 7 8 6 7 7 8 9 9 9 9 8 8 7 7 6 6 6
17 15 13 11 10 9 18 22 21 19 16 14 13 11 11 14 18 14 14 14 10 7 7 7 5 9 11 9 8 6 7 8 10 10 11 10 10 9 8 8 8 8 8
7 7 7 10 14 25 26 24 22 18 16 12 10 14 16 19 14 16 9 12 10 8 4 8 14 13 11 8 7 6 8 11 12 10 10 11 12 11 11 11 10 10 11
16 17 20 27 31 27 25 25 22 20 16 12 12 17 14 10 15 12 14 12 10 9 16 17 14 14 11 7 8 9 10 11 12 12 14 14 14 13 12 11 10 8 8
32 33 33 32 30 25 25 25 20 19 17 10 15 15 15 18 21 18 21 26 23 20 18 16 13 12 10 10 11 12 13 15 14 14 13 13 12 12 11 10 9 9 9
34 32 33 30 29 30 22 22 30 29 25 21 21 19 17 17 19 29 28 28 22 17 15 13 13 14 14 14 14 16 15 14 13 13 12 11 10 10 11 10 10 10 9
27 27 29 35 24 24 27 29 30 29 26 26 27 32 37 37 31 27 23 20 19 18 16 15 15 15 16 17 16 15 16 15 15 14 14 14 14 12 10 10 9 9 7
27 29 32 34 30 28 24 21 22 24 28 37 39 36 34 29 26 25 24 22 19 17 17 17 17 19 18 18 18 18 18 19 19 19 17 14 11 10 10 9 8 7 6
36 34 31 28 26 21 19 23 29 34 37 38 35 31 28 27 26 24 23 21 19 20 20 20 20 20 20 21 21 22 22 21 21 20 19 17 15 13 11 10 8 7 6
30 28 26 27 26 25 29 33 35 36 32 31 30 29 28 26 25 23 22 22 21 22 22 21 21 21 20 22 23 23 22 23 23 23 22 20 18 14 11 9 7 6 5
26 26 28 25 26 30 34 35 30 29 29 30 28 27 27 25 23 22 22 22 22 21 21 21 20 21 22 21 22 23 25 25 23 21 21 19 17 13 11 9 8 7 8
23 25 26 29 35 34 34 29 29 29 29 28 28 27 24 23 22 22 22 21 20 20 20 20 20 21 21 23 24 24 22 21 22 23 23 21 19 16 12 11 11 10 11
25 29 32 32 36 31 31 29 28 27 27 26 27 25 22 22 22 21 20 20 19 19 19 19 20 21 22 22 21 21 22 24 24 25 26 25 22 18 14 13 12 10 9
29 28 30 35 31 31 28 27 26 25 24 24 23 22 21 21 20 20 19 18 18 18 18 18 19 19 19 19 20 22 23 25 27 28 28 28 24 19 15 13 12 10 9
34 34 32 31 29 28 26 25 23 22 22 22 21 21 20 19 18 18 17 17 17 17 16 16 17 17 17 18 19 21 23 24 26 28 29 28 26 22 17 14 13 11 8
31 30 30 28 27 25 24 22 21 20 20 20 19 19 18 17 16 15 15 15 14 14 14 15 15 16 16 17 18 20 22 23 24 25 28 28 27 26 21 16 15 12 11
Wind_Direction
281 281 284 287 289 291 295 286 286 292 296 296 301 304 301 299 295 285 280 278 276 271 270 273 276 271 270 270 272 273 272 275 281 287 291 293 289 291 284 284 275 272 282
279 277 279 284 285 288 285 283 285 293 297 298 302 301 300 298 291 281 275 277 274 272 274 275 275 271 272 272 275 277 278 279 283 287 290 290 291 293 285 291 288 298 270
271 271 274 277 279 279 282 283 288 292 295 301 299 299 296 292 283 278 270 268 268 274 278 274 268 271 272 277 282 284 284 285 286 286 288 289 287 286 279 287 287 290 263
267 272 275 275 276 277 281 286 288 290 291 294 296 293 288 283 275 272 266 263 270 278 278 271 271 271 277 284 286 288 289 290 290 289 285 282 280 279 279 278 279 269 270
265 267 271 277 275 279 282 284 286 288 287 288 291 284 278 274 273 268 266 267 275 279 269 267 268 280 288 290 292 293 292 291 287 282 278 279 281 268 270 260 267 275 277
264 270 273 275 277 279 278 280 283 285 283 282 280 271 267 266 269 265 266 270 273 264 262 263 274 283 295 300 297 294 291 283 279 281 276 269 261 263 258 254 221 109 154
274 273 273 275 278 278 276 276 279 278 276 272 264 258 257 256 260 264 266 261 257 257 262 266 275 295 301 311 324 303 290 304 293 275 266 256 246 209 157 152 121 154 173
274 273 274 276 274 273 274 275 275 273 265 248 243 242 245 247 252 259 252 248 251 261 252 256 278 281 298 327 43 43 48 66 67 67 77 88 93 90 110 126 141 134 173
274 274 272 271 273 274 277 274 266 251 228 220 221 223 231 239 234 229 229 221 230 221 226 238 236 266 246 42 44 29 43 60 68 75 84 86 94 97 100 112 102 57 5
271 269 268 268 268 266 261 248 216 197 197 194 196 211 223 207 197 197 176 154 165 187 178 163 149 144 61 54 52 59 63 75 80 81 87 90 90 86 79 72 63 39 15
268 266 263 254 248 249 243 183 165 167 171 178 192 204 196 194 185 175 162 165 194 176 193 140 137 124 79 76 78 84 81 76 73 69 66 65 63 60 54 46 40 29 14
266 265 243 225 222 200 158 148 150 154 161 181 186 191 194 182 177 193 189 156 140 132 135 155 157 97 92 89 84 81 79 72 65 59 57 56 61 55 49 43 35 29 21
229 179 165 157 142 142 144 148 147 156 158 155 167 189 184 193 172 153 154 131 124 140 170 188 107 103 94 92 90 76 68 68 66 63 64 61 55 51 45 42 36 30 30
119 120 124 126 132 136 135 136 142 148 161 172 161 172 177 129 158 158 149 112 101 118 112 108 108 101 94 87 78 70 68 69 62 58 52 45 42 40 40 36 38 42 42
112 113 119 123 120 129 137 141 146 117 88 108 118 138 132 122 120 119 113 109 106 107 101 99 98 99 99 93 85 78 68 61 54 51 48 42 37 32 30 29 32 36 42
110 112 116 119 124 125 120 109 110 108 107 104 106 110 110 112 115 110 107 108 113 110 108 109 106 100 90 80 74 64 58 56 53 50 45 42 38 31 24 26 24 31 35
105 117 117 120 119 122 115 104 106 110 107 102 104 104 97 93 98 102 104 105 108 107 107 99 90 88 83 75 71 66 59 53 48 43 38 31 25 17 18 23 22 27 30
102 105 112 108 105 107 100 96 90 100 109 111 105 101 101 105 108 110 109 106 107 107 102 98 92 85 82 78 71 65 58 50 44 38 33 29 22 18 23 22 30 30 46
107 109 107 104 103 105 112 108 111 113 118 111 114 116 113 111 109 107 106 107 106 102 97 92 89 85 80 74 67 60 53 47 43 39 34 30 26 27 22 30 28 29 46
95 90 103 109 112 113 117 122 120 117 116 114 118 116 115 112 108 107 108 105 102 97 94 92 88 82 76 68 60 55 50 44 39 35 31 27 25 24 29 34 32 34 60
101 105 104 110 116 123 123 119 114 112 115 112 110 111 108 106 107 107 104 101 99 97 95 90 83 73 66 63 58 52 47 41 37 36 35 33 32 34 46 51 50 65 73
107 113 115 117 118 119 117 113 115 115 115 117 113 107 108 108 108 106 103 101 100 96 89 82 76 71 65 59 53 50 47 44 41 38 37 37 39 45 52 54 56 69 73
108 114 121 120 117 114 115 116 118 120 119 114 109 110 111 109 108 106 104 100 96 92 87 80 72 64 60 57 54 52 48 44 42 40 39 39 40 45 53 55 58 64 64
111 111 118 120 116 117 118 120 120 117 114 110 110 111 111 110 108 105 103 100 94 87 79 71 65 62 61 58 55 52 50 47 43 42 41 40 39 42 50 52 54 59 57
115 120 120 118 115 116 118 119 119 117 113 112 112 112 110 109 107 102 98 93 87 80 71 67 65 64 61 57 54 51 47 44 41 38 42 41 40 41 45 50 50 51 59
118 118 116 116 118 120 120 118 115 113 113 113 113 112 109 105 102 99 94 87 80 74 70 68 65 61 58 53 49 46 44 43 39 38 42 41 40 40 41 46 45 45 51
Height
3077 3075 3074 3073 3071 3069 3068 3067 3064 3062 3059 3057 3054 3050 3048 3044 3041 3038 3037 3037 3037 3035 3034 3032 3029 3028 3029 3029 3029 3028 3027 3025 3022 3017 3017 3015 3013 3011 3010 3008 3006 3004 3001
3064 3063 3062 3061 3059 3058 3057 3056 3054 3053 3050 3048 3045 3041 3037 3034 3032 3030 3029 3030 3029 3028 3026 3024 3022 3022 3022 3022 3022 3020 3019 3017 3015 3012 3010 3008 3006 3004 3002 3000 2999 2996 2995
3051 3050 3050 3048 3048 3047 3046 3045 3044 3043 3041 3039 3035 3032 3028 3026 3024 3023 3023 3023 3022 3021 3019 3017 3016 3017 3017 3016 3015 3013 3011 3010 3008 3005 3002 3000 2998 2995 2994 2991 2989 2990 2985
3038 3037 3037 3036 3036 3036 3035 3034 3033 3032 3030 3029 3026 3023 3021 3019 3018 3017 3016 3016 3015 3014 3012 3013 3013 3013 3012 3011 3009 3006 3004 3002 3000 2997 2994 2990 2988 2986 2984 2984 2982 2982 2982
3025 3024 3024 3024 3023 3023 3023 3021 3020 3020 3020 3019 3016 3015 3014 3013 3012 3011 3011 3010 3010 3009 3009 3009 3009 3009 3008 3006 3004 3001 2997 2994 2991 2988 2985 2982 2980 2980 2978 2976 2975 2975 2976
3011 3011 3010 3009 3010 3010 3009 3008 3008 3009 3009 3009 3008 3008 3007 3007 3007 3006 3006 3006 3006 3006 3006 3006 3007 3006 3005 3003 2999 2995 2990 2985 2980 2977 2975 2975 2974 2973 2972 2973 2972 2974 2975
2997 2997 2996 2996 2996 2995 2995 2995 2996 2997 2998 2998 3000 3001 3001 3002 3002 3002 3002 3002 3003 3003 3004 3005 3005 3004 3003 2999 2994 2987 2980 2976 2973 2972 2971 2970 2970 2970 2972 2972 2971 2975 2975
2983 2982 2982 2981 2981 2980 2981 2982 2983 2984 2987 2990 2993 2994 2996 2997 2999 2999 3000 3000 3001 3002 3002 3002 3003 3002 3000 2997 2993 2989 2982 2979 2976 2974 2973 2974 2975 2975 2975 2976 2976 2975 2976
2966 2967 2967 2967 2967 2967 2968 2969 2971 2974 2978 2983 2987 2990 2993 2995 2996 2997 2998 2998 2999 3000 3000 3001 3000 2999 2998 2997 2994 2992 2988 2985 2983 2982 2980 2980 2980 2980 2979 2979 2978 2976 2975
2951 2951 2953 2955 2957 2959 2960 2962 2964 2968 2974 2980 2984 2987 2990 2992 2994 2995 2996 2998 2998 2999 2999 2999 2999 2998 2998 2997 2996 2994 2993 2991 2988 2987 2985 2984 2983 2982 2980 2979 2978 2977 2975
2940 2942 2945 2948 2951 2953 2955 2958 2963 2969 2974 2978 2982 2985 2987 2990 2992 2993 2994 2995 2997 2997 2997 2997 2999 2999 2999 2999 2999 2998 2997 2994 2992 2990 2988 2987 2985 2984 2982 2980 2978 2977 2975
2934 2936 2939 2942 2946 2949 2954 2960 2965 2970 2974 2978 2982 2984 2987 2989 2991 2991 2989 2994 2996 2996 2997 2998 2999 3001 3001 3001 3002 3001 2999 2997 2995 2993 2991 2990 2987 2985 2983 2981 2979 2977 2974
2930 2933 2936 2940 2945 2951 2958 2963 2967 2972 2976 2980 2983 2984 2987 2989 2987 2991 2995 2995 2997 2998 2999 3000 3001 3003 3004 3006 3005 3004 3002 2999 2997 2997 2994 2992 2989 2986 2984 2981 2979 2977 2974
2932 2935 2939 2944 2951 2957 2962 2967 2972 2974 2978 2980 2983 2984 2988 2986 2990 2994 2997 2998 2999 3001 3003 3005 3006 3007 3008 3008 3008 3006 3004 3002 3000 2998 2995 2992 2990 2987 2984 2982 2980 2978 2977
2940 2944 2950 2955 2961 2966 2969 2973 2976 2978 2981 2983 2985 2989 2992 2992 2994 2998 3000 3001 3004 3007 3009 3010 3011 3012 3012 3012 3010 3009 3006 3003 3001 2999 2997 2995 2992 2989 2986 2984 2982 2979 2978
2954 2957 2961 2966 2970 2974 2978 2979 2979 2983 2987 2989 2992 2995 2996 2998 3000 3002 3005 3008 3012 3012 3014 3015 3016 3015 3015 3014 3013 3010 3009 3007 3006 3003 3000 2998 2995 2991 2988 2986 2983 2981 2978
2966 2967 2971 2976 2979 2983 2986 2989 2988 2990 2993 2995 2998 3001 3003 3005 3008 3011 3014 3017 3018 3019 3020 3020 3020 3019 3019 3017 3016 3015 3013 3011 3008 3005 3001 2997 2994 2991 2989 2986 2983 2981 2980
2977 2978 2983 2986 2988 2991 2994 2996 2996 2997 3000 3002 3007 3010 3012 3014 3016 3018 3020 3022 3023 3024 3024 3025 3024 3023 3023 3022 3020 3018 3016 3013 3009 3005 3002 2999 2996 2993 2989 2987 2985 2983 2982
2989 2991 2994 2995 2997 3000 3001 3002 3004 3007 3010 3012 3014 3017 3020 3023 3024 3026 3027 3028 3029 3029 3029 3029 3029 3029 3028 3026 3024 3021 3018 3015 3012 3008 3004 3000 2996 2993 2990 2988 2986 2984 2983
2999 3000 3002 3003 3005 3006 3008 3011 3014 3017 3018 3020 3023 3025 3027 3030 3031 3032 3033 3034 3035 3034 3034 3035 3034 3034 3032 3030 3027 3024 3022 3018 3014 3010 3005 3002 2998 2994 2992 2990 2988 2987 2986
3007 3008 3010 3011 3012 3015 3018 3022 3024 3027 3028 3030 3032 3033 3034 3036 3038 3039 3040 3040 3040 3041 3041 3041 3039 3037 3035 3033 3031 3028 3024 3021 3018 3014 3010 3006 3001 2998 2995 2993 2991 2990 2989
3015 3017 3018 3020 3022 3026 3029 3031 3033 3035 3037 3039 3039 3040 3042 3043 3044 3045 3045 3046 3047 3046 3046 3044 3044 3042 3040 3037 3034 3031 3029 3027 3022 3018 3013 3009 3004 3000 2998 2996 2994 2993 2992
3025 3026 3028 3030 3033 3035 3037 3039 3041 3043 3045 3045 3045 3047 3049 3050 3050 3051 3052 3052 3052 3051 3051 3050 3048 3045 3043 3041 3040 3037 3034 3030 3026 3021 3017 3012 3007 3004 3002 3000 2998 2997 2996
3032 3035 3037 3040 3041 3043 3045 3046 3049 3051 3051 3051 3052 3054 3055 3056 3057 3057 3058 3057 3057 3056 3055 3053 3051 3050 3048 3047 3044 3041 3038 3034 3030 3025 3020 3016 3012 3008 3006 3004 3002 3001 2999
3042 3044 3046 3047 3049 3051 3053 3055 3056 3057 3057 3058 3059 3060 3061 3062 3063 3062 3062 3062 3061 3060 3059 3057 3056 3055 3053 3051 3048 3045 3042 3038 3034 3030 3025 3021 3017 3013 3010 3008 3006 3004 3003
3051 3052 3054 3055 3057 3059 3060 3061 3062 3063 3064 3065 3065 3066 3066 3067 3067 3067 3067 3066 3065 3064 3063 3062 3060 3059 3057 3054 3052 3049 3046 3042 3039 3035 3031 3027 3022 3018 3015 3012 3010 3008 3006